"TOA5","AWS1","CR1000","7964","CR1000.Std.14","CPU:AWS1_114.CR1","64363","TBL110"
"TIMESTAMP","RECORD","Wind_spd_WVc(1)","Wind_spd_WVc(2)","Air_Temp_Avg","Humidity_Avg","SW_upper_Wm2_Avg","Rain_Tot","Press_Avg","Issui_Tot","Depth_cm","SR50A_Raw","Quality","Ground_Temp_Avg(1)","Ground_Temp_Avg(2)","SW_lower_Wm2_Avg","Albedo_Avg","SWC_per(1)","SWC_per(2)","Period(1)","Period(2)"
"TS","RN","","","","","","","","","","","","","","","","","","",""
"","","WVc","WVc","Avg","Avg","Avg","Tot","Avg","Tot","Smp","Smp","Smp","Avg","Avg","Avg","Avg","Smp","Smp","Smp","Smp"
"2016-11-27 00:00:00",263725,0.041,300.3,1.985,100,0,0,869.5126,1,-4.482,3.213,199,4.925,6.447,0.01137291,0,52.77,59.67,33.98,35.6
"2016-11-27 00:10:00",263726,0.039,130.9,2.067,100,0,0,869.4578,0.5,-4.329,3.211,178,4.923,6.421,0.1440555,0,53,59.73,34.03,35.62
"2016-11-27 00:20:00",263727,0.257,127.4,2.247,100,0.2634212,0,869.4705,0.5,-3.577,3.2,184,4.919,6.397,0.3146423,0.5,53.22,59.79,34.08,35.63
"2016-11-27 00:30:00",263728,0.552,121.7,3.027,100,0.7745345,0,869.4009,0.5,-4.483,3.205,205,4.918,6.395,0.8188248,0.974,53.5,59.85,34.15,35.64
"2016-11-27 00:40:00",263729,0.468,135.2,3.679,100,0.4246216,0,869.5105,0.5,-3.225,3.19,257,4.92,6.401,0.6254968,1.366,53.67,59.97,34.19,35.67
"2016-11-27 00:50:00",263730,0.636,135.7,3.897,100,0.06683833,0,869.2892,0.5,-3.122,3.188,201,4.919,6.403,0.329806,0.546,53.78,60.15,34.22,35.71
"2016-11-27 01:00:00",263731,0.426,116.7,3.903,100,0,0,869.2956,0,-0.805,3.165,320,4.917,6.406,0.1516341,0,53.9,60.27,34.25,35.74
"2016-11-27 01:10:00",263732,0.699,113.3,4.007,100,0.0117949,0,869.2682,0.5,-2.417,3.181,232,4.917,6.393,0.3184307,0.096,53.95,60.5,34.26,35.79
"2016-11-27 01:20:00",263733,0.501,102.8,4.009,100,0,0,869.186,0,-2.417,3.181,244,4.917,6.382,0.2047053,0,53.95,60.68,34.26,35.83
"2016-11-27 01:30:00",263734,0.675,126.3,4.024,100,0,0,869.0617,0.5,-2.467,3.181,204,4.917,6.349,0.2539862,0,53.95,60.98,34.26,35.9
"2016-11-27 01:40:00",263735,0.621,128.4,4.206,100,0,0,869.0154,0,-0.753,3.163,332,4.917,6.32,0.4549007,0,53.9,61.16,34.25,35.94
"2016-11-27 01:50:00",263736,0.808,115.2,4.315,100,0.04324792,0,868.851,0,-1.986,3.174,238,4.917,6.305,0.4132014,0.354,53.9,61.34,34.25,35.98
"2016-11-27 02:00:00",263737,0.628,17,4.431,100,0.09435911,0,868.9016,0.5,-1.706,3.17,252,4.915,6.305,0.3715022,0.675,53.9,61.46,34.25,36.01
"2016-11-27 02:10:00",263738,0.53,35.93,4.616,100,0.1297438,0,868.7941,0.5,-2.791,3.181,224,4.917,6.303,0.3070579,0.49,53.84,61.58,34.23,36.04
"2016-11-27 02:20:00",263739,0.395,68.18,4.639,100,0.02752141,0,868.7626,0,-3.574,3.189,196,4.917,6.302,0.1023526,0.129,53.9,61.64,34.25,36.05
"2016-11-27 02:30:00",263740,0.464,73.05,4.651,100,0,0,868.7267,0.5,-3.975,3.192,184,4.917,6.302,0.03411755,0,53.9,61.7,34.25,36.06
"2016-11-27 02:40:00",263741,0.603,129.9,4.669,100,0,0,868.5751,0.5,-3.472,3.187,177,4.917,6.302,0.05307174,0,53.95,61.82,34.26,36.09
"2016-11-27 02:50:00",263742,0.542,119.9,4.806,100,0,0,868.4318,0,-3.219,3.184,194,4.917,6.302,0.1743786,0,53.95,61.94,34.26,36.12
"2016-11-27 03:00:00",263743,0.243,81.4,4.915,100,0,0,868.261,0,-3.144,3.183,193,4.917,6.302,0.09098013,0,53.95,62,34.26,36.13
"2016-11-27 03:10:00",263744,0.328,38.4,5.046,100,0.08256421,0,868.2568,0.5,-3.293,3.183,192,4.917,6.302,0.1743786,0.466,53.95,62.06,34.26,36.15
"2016-11-27 03:20:00",263745,0.432,62.21,5.081,100,0,0,867.9872,0,-3.521,3.186,190,4.917,6.302,0.01895419,0,54.01,62.06,34.27,36.15
"2016-11-27 03:30:00",263746,0.403,123.9,5.09,100,0,0,867.7512,0,-3.47,3.185,189,4.917,6.302,0.06823509,0,53.95,62.12,34.26,36.16
"2016-11-27 03:40:00",263747,0.389,99.4,5.207,100,0.007863259,0,867.7512,0,-3.52,3.185,189,4.917,6.302,0.1099343,0.032,53.95,62.12,34.26,36.16
"2016-11-27 03:50:00",263748,0.348,120,5.297,100,0.01965815,0,867.608,0,-3.519,3.184,189,4.913,6.302,0.1592152,0.08,53.9,62.06,34.25,36.15
"2016-11-27 04:00:00",263749,0.203,112.1,5.404,100,0,0,867.5173,0.5,-3.367,3.182,190,4.905,6.302,0.03032671,0,53.9,62.06,34.25,36.15
"2016-11-27 04:10:00",263750,0.548,113.7,5.491,100,0,0.5,867.4984,0,-3.416,3.182,186,4.884,6.302,0.06065342,0,53.9,62.12,34.25,36.16
"2016-11-27 04:20:00",263751,0.388,92.1,5.489,100,0,0,867.3973,0,-3.517,3.183,190,4.957,6.302,0.007581678,0,53.9,62.06,34.25,36.15
"2016-11-27 04:30:00",263752,0.302,61.18,5.492,100,0.003931629,0,867.4836,0,-3.367,3.182,190,4.992,6.302,0.08339845,0.016,53.84,62.12,34.23,36.16
"2016-11-27 04:40:00",263753,0.262,77.48,5.562,100,0.007863259,0,867.2662,0,-3.188,3.179,193,5.003,6.302,0.06444426,0.032,53.78,62.06,34.22,36.15
"2016-11-27 04:50:00",263754,0.294,16.45,5.49,100,0,0,867.2817,0,-3.165,3.18,189,5.003,6.302,0.007581678,0,53.78,62.06,34.22,36.15
"2016-11-27 05:00:00",263755,0.268,50.83,5.496,100,0,0,867.4738,0,-3.19,3.18,196,5.003,6.302,0,0,53.78,62.06,34.22,36.15
"2016-11-27 05:10:00",263756,0.106,50.08,5.489,100,0,0,867.329,0,-3.165,3.18,194,5.003,6.302,0,0,53.73,62.06,34.21,36.15
"2016-11-27 05:20:00",263757,0.246,60.39,5.473,100,0,0,867.3094,0.5,-3.064,3.179,196,5.003,6.302,0,0,53.73,62.06,34.21,36.15
"2016-11-27 05:30:00",263758,0.511,120.9,5.384,100,0,0,867.4317,0,-3.519,3.184,195,4.986,6.302,0,0,53.67,62.06,34.19,36.15
"2016-11-27 05:40:00",263759,0.212,97.5,5.381,100,0,0,867.3241,0,-3.519,3.184,195,4.951,6.302,0,0,53.73,62.06,34.21,36.15
"2016-11-27 05:50:00",263760,0.136,88.5,5.351,100,0,0,867.4033,0,-3.772,3.187,194,4.988,6.302,0,0,53.67,62.06,34.19,36.15
"2016-11-27 06:00:00",263761,0.098,89.9,5.356,100,0,0,867.2492,0,-3.721,3.186,191,5.037,6.302,0,0,53.67,62,34.19,36.13
"2016-11-27 06:10:00",263762,0.212,147.1,5.388,100,0,0,867.202,0,-3.772,3.187,195,5.078,6.302,0.003790839,0,53.67,62,34.19,36.13
"2016-11-27 06:20:00",263763,0.515,134.9,5.37,100,0,0,867.0869,0,-3.418,3.183,200,5.09,6.302,0.01516336,0,53.61,61.94,34.18,36.12
"2016-11-27 06:30:00",263764,0.402,130.7,5.444,100,0,0,867.2026,0,-3.216,3.181,185,5.09,6.302,0,0,53.61,61.94,34.18,36.12
"2016-11-27 06:40:00",263765,0.19,136.6,5.437,100,0,0,867.2032,0,-3.466,3.183,196,5.087,6.296,0,0,53.61,61.94,34.18,36.12
"2016-11-27 06:50:00",263766,0.146,133.3,5.385,100,0.4953803,0,867.0333,0,-3.19,3.181,197,5.082,6.297,0,0,53.56,61.94,34.17,36.12
"2016-11-27 07:00:00",263767,0.359,138.4,5.267,100,2.134865,0,866.7529,0,-3.115,3.18,194,5.058,6.285,0.2881025,0.118,53.56,61.88,34.17,36.11
"2016-11-27 07:10:00",263768,0.221,154.8,5.435,100,4.466322,0,866.6895,0.5,-3.064,3.179,208,5.031,6.29,0.6937221,0.153,53.56,61.88,34.17,36.11
"2016-11-27 07:20:00",263769,0.031,130.2,5.468,100,8.102999,0,866.6693,0,-3.264,3.181,205,5.049,6.293,1.118285,0.139,53.56,61.82,34.17,36.09
"2016-11-27 07:30:00",263770,0,0,5.528,100,10.49733,0,866.5077,0,-3.517,3.183,208,5.083,6.297,1.364686,0.13,53.5,61.82,34.15,36.09
"2016-11-27 07:40:00",263771,0,0,5.434,100,11.81448,0,866.4313,0,-3.317,3.182,197,5.161,6.3,1.364695,0.116,53.5,61.82,34.15,36.09
"2016-11-27 07:50:00",263772,0.008,154.5,5.429,100,12.09367,0,866.4114,0,-3.343,3.182,190,5.175,6.3,1.364699,0.113,53.45,61.76,34.14,36.08
"2016-11-27 08:00:00",263773,0,0,5.548,100,15.93488,0,866.4143,0,-3.316,3.181,197,5.165,6.3,1.853718,0.116,53.45,61.76,34.14,36.08
"2016-11-27 08:10:00",263774,0,0,5.341,100,19.9648,0,866.4244,0,-3.292,3.182,192,5.141,6.3,2.066006,0.103,53.45,61.76,34.14,36.08
"2016-11-27 08:20:00",263775,0,0,5.339,100,24.43899,0,866.4464,0,-2.963,3.178,178,5.147,6.3,2.58535,0.106,53.45,61.76,34.14,36.08
"2016-11-27 08:30:00",263776,0.054,155.6,5.471,100,36.76429,0,866.5857,0,-2.81,3.177,197,5.119,6.299,4.003085,0.109,53.45,61.76,34.14,36.08
"2016-11-27 08:40:00",263777,0.47,138.3,5.451,100,64.59987,0,866.4792,0,-2.783,3.175,193,5.118,6.299,7.266956,0.112,53.45,61.7,34.14,36.06
"2016-11-27 08:50:00",263778,0.412,128.7,5.869,100,71.34295,0,866.413,0,-3.008,3.175,185,5.23,6.3,8.461106,0.119,53.33,61.7,34.11,36.06
"2016-11-27 09:00:00",263779,0.292,124.3,6.126,100,104.2699,0,866.2648,0.5,-2.902,3.173,193,5.261,6.3,12.20261,0.117,53.39,61.7,34.13,36.06
"2016-11-27 09:10:00",263780,0.493,125.9,6.358,99.7,98.47623,0,866.2842,0,-2.797,3.171,193,5.254,6.293,11.61096,0.118,53.39,61.64,34.13,36.05
"2016-11-27 09:20:00",263781,0.526,141.2,6.523,97.3,145.7588,0,866.0013,0,-2.871,3.171,188,5.25,6.29,17.35749,0.119,53.39,61.64,34.13,36.05
"2016-11-27 09:30:00",263782,0.648,150.1,6.74,96.4,200.4576,0,865.7199,0,-3.042,3.171,198,5.177,6.276,24.11964,0.12,53.39,61.64,34.13,36.05
"2016-11-27 09:40:00",263783,0.477,143.7,6.895,93.5,157.4339,0,865.6207,0,-2.984,3.17,192,5.177,6.226,18.96789,0.12,53.33,61.64,34.11,36.05
"2016-11-27 09:50:00",263784,0.351,140.7,6.968,93.7,131.909,0,865.3974,0,-2.973,3.169,198,5.285,6.185,15.78304,0.12,53.33,61.58,34.11,36.04
"2016-11-27 10:00:00",263785,0.31,139.5,7.052,92.6,134.6009,0,865.2372,0,-2.911,3.168,198,5.268,6.166,16.31642,0.121,53.28,61.58,34.1,36.04
"2016-11-27 10:10:00",263786,0.179,158.8,7.279,92,125.7563,0,865.1382,0,-3.003,3.168,199,5.207,6.149,14.94723,0.119,53.28,61.58,34.1,36.04
"2016-11-27 10:20:00",263787,0.282,117.8,7.439,91.1,126.8247,0,865.0983,0,-2.893,3.166,197,5.26,6.145,15.06417,0.119,53.28,61.52,34.1,36.02
"2016-11-27 10:30:00",263788,0.069,136.3,7.48,89.8,97.44935,0,864.8792,0,-3.143,3.168,197,5.333,6.15,11.41811,0.117,53.28,61.58,34.1,36.04
"2016-11-27 10:40:00",263789,0.087,133.2,7.472,93.3,110.8701,0,864.7634,0,-2.838,3.165,198,5.299,6.209,12.30851,0.111,53.22,61.52,34.08,36.02
"2016-11-27 10:50:00",263790,0,0,7.522,94.6,109.4115,0,864.6264,0,-3.092,3.168,198,5.261,6.274,11.48613,0.104,53.22,61.46,34.08,36.01
"2016-11-27 11:00:00",263791,0.149,356.2,7.451,94.7,96.4414,0,864.6264,0,-3.295,3.17,197,5.277,6.293,10.06882,0.104,53.22,61.46,34.08,36.01
"2016-11-27 11:10:00",263792,0.096,92.8,7.56,98.8,104.5535,0,864.4579,0,-3.725,3.174,198,5.385,6.283,11.03894,0.106,53.16,61.46,34.07,36.01
"2016-11-27 11:20:00",263793,0.293,135.3,7.284,98.8,97.9113,0,864.1863,0,-3.146,3.17,211,5.35,6.298,10.34167,0.106,53.16,61.4,34.07,36
"2016-11-27 11:30:00",263794,0,0,7.292,98.9,73.09547,0,864.1104,0,-3.398,3.172,205,5.353,6.296,7.332769,0.1,53.16,61.46,34.07,36.01
"2016-11-27 11:40:00",263795,0.033,126.3,7.269,96.8,48.429,0,863.8493,0.5,-3.45,3.173,191,5.482,6.298,4.532295,0.093,53.16,61.4,34.07,36
"2016-11-27 11:50:00",263796,0.02,156.1,7.093,99,42.41959,0,863.7187,0,-4.388,3.183,203,5.467,6.298,3.831229,0.089,53.16,61.4,34.07,36
"2016-11-27 12:00:00",263797,0.01,306.3,6.999,100,23.07078,0,863.7081,0.5,-3.251,3.173,213,5.438,6.296,1.834139,0.08,53.11,61.34,34.06,35.98
"2016-11-27 12:10:00",263798,0.025,307,6.789,100,29.5872,0,863.4427,0.5,-2.874,3.17,203,5.513,6.296,2.432888,0.082,53.16,61.34,34.07,35.98
"2016-11-27 12:20:00",263799,0.164,336,6.652,100,29.99595,0,863.3627,0.5,-4.114,3.183,186,5.581,6.295,2.679208,0.089,53.22,61.34,34.08,35.98
"2016-11-27 12:30:00",263800,0.078,295.7,6.56,100,40.91429,0,863.3627,0.5,-3.304,3.175,208,5.545,6.298,3.668279,0.09,53.39,61.4,34.13,36
"2016-11-27 12:40:00",263801,0.181,296.4,6.411,100,26.55695,0,863.4006,0.5,-3.333,3.177,195,5.59,6.297,2.304043,0.087,53.5,61.46,34.15,36.01
"2016-11-27 12:50:00",263802,0.135,301.3,6.104,100,19.41169,0,863.5565,0.5,-4.068,3.186,204,5.675,6.298,1.595398,0.082,53.61,61.52,34.18,36.02
"2016-11-27 13:00:00",263803,0.089,299.9,5.787,100,31.23792,0,863.4449,0.5,-3.515,3.182,198,5.66,6.298,2.717103,0.087,53.73,61.64,34.21,36.05
"2016-11-27 13:10:00",263804,0.144,301.4,5.707,100,41.15403,0,863.3585,0,-3.313,3.18,243,5.642,6.298,3.672069,0.089,53.84,61.76,34.23,36.08
"2016-11-27 13:20:00",263805,0.174,149,5.924,100,49.26221,0,862.992,0.5,-3.817,3.184,182,5.608,6.298,4.861985,0.099,53.9,61.94,34.25,36.12
"2016-11-27 13:30:00",263806,0.833,185.3,5.847,100,40.32475,0,862.6403,0,-2.657,3.174,191,5.702,6.298,4.035865,0.1,53.95,62,34.26,36.13
"2016-11-27 13:40:00",263807,0.301,194.6,5.607,100,20.9838,0,862.6908,0.5,-2.607,3.174,201,5.773,6.298,2.129724,0.102,53.95,62.18,34.26,36.17
"2016-11-27 13:50:00",263808,0.619,154.6,5.552,100,31.08857,0,862.3433,0,-4.046,3.188,194,5.744,6.298,3.262798,0.105,54.01,62.3,34.27,36.2
"2016-11-27 14:00:00",263809,0.747,138.5,5.562,100,28.44349,0,862.358,0.5,-3.642,3.184,195,5.72,6.297,3.027846,0.106,54.01,62.36,34.27,36.21
"2016-11-27 14:10:00",263810,0.169,290.9,5.577,100,24.64683,0,862.3496,0.5,-3.516,3.183,250,5.754,6.298,2.554153,0.103,54.01,62.36,34.27,36.21
"2016-11-27 14:20:00",263811,0.358,127.2,5.537,100,26.28576,0,861.8841,0,-2.961,3.178,184,5.841,6.297,2.645102,0.101,54.07,62.42,34.29,36.23
"2016-11-27 14:30:00",263812,0.884,91.1,5.402,99.9,23.98261,0,861.5134,0.5,-4.25,3.192,235,5.865,6.298,2.546574,0.106,54.12,62.48,34.3,36.24
"2016-11-27 14:40:00",263813,0.425,38.57,5.352,99.1,28.30593,0,861.5071,0.5,-3.795,3.187,201,5.865,6.298,3.07711,0.109,54.12,62.54,34.3,36.25
"2016-11-27 14:50:00",263814,0.43,155.2,5.415,100,24.53678,0,861.3492,0.5,-3.996,3.188,192,5.854,6.298,2.762578,0.112,54.12,62.72,34.3,36.3
"2016-11-27 15:00:00",263815,0.293,285.1,5.701,100,22.81928,0,861.5745,0,-3.594,3.184,193,5.797,6.298,2.599631,0.113,54.18,62.78,34.32,36.31
"2016-11-27 15:10:00",263816,0.041,2.233,5.553,100,15.30104,0,861.545,0.5,-3.623,3.184,182,5.795,6.306,1.485544,0.097,54.18,62.96,34.32,36.35
"2016-11-27 15:20:00",263817,0.293,114,5.556,100,13.14326,0,861.3365,0.5,-3.647,3.185,193,5.866,6.305,1.258166,0.095,54.18,63.02,34.32,36.36
"2016-11-27 15:30:00",263818,0.296,129.4,5.488,100,14.00016,0,861.0753,0,-3.418,3.181,194,5.956,6.307,1.40218,0.1,54.18,63.2,34.32,36.4
"2016-11-27 15:40:00",263819,0.62,287.7,5.767,100,11.88951,0,861.1617,0,-4.153,3.189,187,5.955,6.302,1.485549,0.121,54.18,63.45,34.32,36.46
"2016-11-27 15:50:00",263820,0.592,308.7,5.412,100,6.147202,0,861.2818,0.5,-4.129,3.19,184,5.942,6.288,0.4699213,0.077,54.18,63.57,34.32,36.49
"2016-11-27 16:00:00",263821,0.296,1.501,5.292,100,3.600393,0,861.1807,0,-3.533,3.185,193,5.939,6.291,0.2766564,0.07,54.18,63.75,34.32,36.53
"2016-11-27 16:10:00",263822,0.794,130.9,5.265,100,3.533711,0,861.1174,0.5,-3.157,3.181,193,5.938,6.28,0.4017354,0.113,54.12,63.93,34.3,36.57
"2016-11-27 16:20:00",263823,0.634,269.3,5.374,100,2.668979,0,860.8795,0.5,-3.433,3.183,198,5.936,6.249,0.4396389,0.174,54.18,64.12,34.32,36.61
"2016-11-27 16:30:00",263824,0.386,293.3,5.688,100,1.517276,0,860.8036,0,-4.191,3.189,174,5.921,6.249,0.4396419,0.272,54.18,64.36,34.32,36.66
"2016-11-27 16:40:00",263825,0.375,107.2,5.692,100,0.3734261,0,860.7699,0.5,-3.839,3.186,187,5.966,6.258,0.03411046,0.072,54.18,64.73,34.32,36.74
"2016-11-27 16:50:00",263826,0.439,317.7,5.399,100,0,0,860.8352,0.5,-3.637,3.187,186,5.967,6.283,0,0,54.24,65.22,34.33,36.85
"2016-11-27 17:00:00",263827,0.21,290.3,4.986,100,0,0,860.6962,0,-3.563,3.186,193,5.977,6.299,0,0,54.24,65.4,34.33,36.89
"2016-11-27 17:10:00",263828,0.192,308,5.016,100,0,0,860.6415,0,-3.796,3.189,195,5.995,6.323,0,0,54.24,65.59,34.33,36.93
"2016-11-27 17:20:00",263829,0.043,289,4.93,100,0,0,860.8773,0.5,-3.547,3.187,192,6.011,6.372,0,0,54.29,65.77,34.34,36.97
"2016-11-27 17:30:00",263830,0.058,295.3,4.883,100,0,0,860.9553,0.5,-3.803,3.19,186,6.046,6.381,0,0,54.29,65.89,34.34,37
"2016-11-27 17:40:00",263831,0.141,12.28,4.818,100,0,0,861.088,0,-3.503,3.187,198,6.067,6.401,0,0,54.29,66.14,34.34,37.06
"2016-11-27 17:50:00",263832,0.141,72.65,4.784,100,0,0,861.0458,0.5,-3.105,3.183,178,6.075,6.437,0,0,54.29,66.33,34.34,37.1
"2016-11-27 18:00:00",263833,0.257,181.3,4.869,100,0,0,860.9911,0.5,-3.919,3.191,182,6.099,6.459,0,0,54.29,66.45,34.34,37.12
"2016-11-27 18:10:00",263834,0.365,194.9,4.896,100,0,0,860.8438,0,-3.541,3.187,195,6.104,6.463,0.04927871,0,54.35,66.45,34.36,37.12
"2016-11-27 18:20:00",263835,0.162,272,4.943,100,0,0,861.0374,0.5,-3.469,3.186,201,6.12,6.468,0,0,54.35,66.51,34.36,37.14
"2016-11-27 18:30:00",263836,0.12,53.6,4.948,100,0,0,861.2275,0.5,-4.429,3.196,193,6.124,6.472,0,0,54.35,66.51,34.36,37.14
"2016-11-27 18:40:00",263837,0.243,12.31,4.897,100,0,0,861.3387,0,-3.522,3.187,208,6.126,6.474,0,0,54.41,66.45,34.37,37.12
"2016-11-27 18:50:00",263838,0.021,292.6,4.904,100,0,0,861.3408,0.5,-3.572,3.187,202,6.127,6.474,0,0,54.35,66.45,34.36,37.12
"2016-11-27 19:00:00",263839,0.287,142.4,4.869,100,0,0,861.2637,0,-3.623,3.188,207,6.127,6.474,0,0,54.35,66.51,34.36,37.14
"2016-11-27 19:10:00",263840,0.712,73.13,4.866,100,0,0,860.87,0.5,-3.547,3.187,202,6.127,6.471,0.03790836,0,54.35,66.45,34.36,37.12
"2016-11-27 19:20:00",263841,1.118,34.32,4.856,100,0,0,860.6612,0,-4.329,3.195,201,6.121,6.47,0.208496,0,54.41,66.45,34.37,37.12
"2016-11-27 19:30:00",263842,0.681,20.35,4.995,100,0,0,860.6823,0.5,-4.932,3.199,198,6.118,6.461,0.416992,0,54.35,66.51,34.36,37.14
"2016-11-27 19:40:00",263843,0.379,312.1,4.931,100,0,0,860.7406,0,-4.38,3.196,197,6.113,6.448,0.1099343,0,54.41,66.51,34.37,37.14
"2016-11-27 19:50:00",263844,0.024,291.1,4.851,100,0,0,860.6024,0,-5.338,3.205,195,6.103,6.436,0,0,54.35,66.51,34.36,37.14
"2016-11-27 20:00:00",263845,0.167,294.1,4.789,100,0,0,860.8464,0,-4.379,3.196,197,6.107,6.42,0,0,54.35,66.51,34.36,37.14
"2016-11-27 20:10:00",263846,0.179,288.9,4.662,100,0,0,860.8514,0.5,-5.288,3.206,198,6.094,6.404,0,0,54.35,66.51,34.36,37.14
"2016-11-27 20:20:00",263847,0,0,4.61,100,0,0,860.7969,0,-4.279,3.196,202,6.105,6.406,0,0,54.29,66.51,34.34,37.14
"2016-11-27 20:30:00",263848,0.108,300.6,4.578,100,0,0,860.8634,0,-2.993,3.183,203,6.104,6.426,0,0,54.29,66.51,34.34,37.14
"2016-11-27 20:40:00",263849,0.057,97.2,4.619,100,0,0,860.6202,0,-2.665,3.18,215,6.084,6.418,0,0,54.29,66.45,34.34,37.12
"2016-11-27 20:50:00",263850,0.106,199.8,4.669,100,0,0,860.6396,0,-3.724,3.19,199,6.111,6.47,0.04549004,0,54.24,66.51,34.33,37.14
"2016-11-27 21:00:00",263851,0.007,279.1,4.621,100,0,0,860.5956,0.5,-3.574,3.189,208,6.11,6.474,0.04549004,0,54.24,66.45,34.33,37.12
"2016-11-27 21:10:00",263852,0.001,294.3,4.64,100,0,0,860.5941,0,-3.674,3.19,212,6.084,6.474,0,0,54.18,66.45,34.32,37.12
"2016-11-27 21:20:00",263853,0.005,36.63,4.595,100,0,0,860.6173,0,-3.725,3.191,210,6.065,6.478,0,0,54.12,66.39,34.3,37.11
"2016-11-27 21:30:00",263854,0.035,314.8,4.455,100,0,0,860.378,0,-3.272,3.187,209,6.047,6.491,0,0,54.12,65.89,34.3,37
"2016-11-27 21:40:00",263855,0,0,4.455,100,0,0,860.346,0,-2.667,3.181,211,6.063,6.494,0,0,54.12,65.77,34.3,36.97
"2016-11-27 21:50:00",263856,0.139,303.9,4.437,100,0,0,860.5871,0,-3.372,3.188,219,6.057,6.518,0,0,54.12,65.65,34.3,36.95
"2016-11-27 22:00:00",263857,0.067,307.2,4.354,100,0,0,860.6351,0,-3.574,3.19,199,6.055,6.537,0,0,54.07,65.46,34.29,36.91
"2016-11-27 22:10:00",263858,0.031,26.91,4.488,100,0,0,860.499,0,-3.472,3.188,198,6.055,6.56,0.3373844,0,54.01,65.28,34.27,36.87
"2016-11-27 22:20:00",263859,0.377,331.5,4.518,100,0,0,860.5236,0.5,-4.078,3.195,198,6.053,6.553,0.2160777,0,54.01,65.16,34.27,36.84
"2016-11-27 22:30:00",263860,0.394,300.9,4.427,100,0,0,860.3753,0,-3.675,3.191,200,6.044,6.56,0,0,54.01,65.03,34.27,36.81
"2016-11-27 22:40:00",263861,0.522,326.5,4.433,100,0,0,860.5036,0,-4.33,3.198,195,6.053,6.561,0.003790837,0,54.01,64.97,34.27,36.8
"2016-11-27 22:50:00",263862,0.565,286.8,4.368,100,0,0,860.502,0,-4.127,3.195,195,6.051,6.561,0.2729402,0,53.9,64.85,34.25,36.77
"2016-11-27 23:00:00",263863,0.295,308.6,4.445,100,0,0,860.6729,0,-4.229,3.197,190,6.048,6.561,0.2047052,0,53.9,64.6,34.25,36.72
"2016-11-27 23:10:00",263864,0.745,294,4.231,100,0,0,860.6258,0,-3.473,3.19,211,6.038,6.561,0,0,53.9,64.48,34.25,36.69
"2016-11-27 23:20:00",263865,0.432,264.2,4.186,100,0,0,860.5798,0,-3.448,3.19,208,6.035,6.561,0,0,53.9,64.42,34.25,36.68
"2016-11-27 23:30:00",263866,0.761,298,4.059,100,0,0,860.3744,0,-3.802,3.195,210,6.044,6.56,0,0,53.84,64.36,34.23,36.66
"2016-11-27 23:40:00",263867,0.671,290,3.915,100,0,0,860.1837,0,-3.752,3.195,205,6.038,6.561,0,0,53.84,64.3,34.23,36.65
"2016-11-27 23:50:00",263868,0.688,306,3.915,100,0,0,860.5463,0,-3.625,3.193,212,6.02,6.561,0,0,53.84,64.24,34.23,36.63
